Weather History for Greenwood, MS

Change the Weather History Date:

Wednesday, November 6, 2013

  Actual Average Record
Temperature  
Mean Temperature 62 °F 58 °F  
Max Temperature 73 °F 70 °F 82 °F (1996)
Min Temperature 51 °F 45 °F 27 °F (1991)
Degree Days  
Heating Degree Days 3 8  
Month to date heating degree days 44 46  
Since 1 July heating degree days 160 177  
Cooling Degree Days 0 1  
Month to date cooling degree days 1 6  
Year to date cooling degree days 2093 2148  
Growing Degree Days 12 (Base 50)    
Moisture  
Dew Point 58 °F    
Average Humidity 82    
Maximum Humidity 100    
Minimum Humidity 64    
Precipitation  
Precipitation 0.66 in 0.12 in 2.50 in (1989)
Month to date precipitation 0.66 0.75  
Year to date precipitation 50.37 42.35  
Sea Level Pressure  
Sea Level Pressure 30.11 in    
Wind  
Wind Speed 9 mph (South)    
Max Wind Speed 18 mph    
Max Gust Speed 26 mph    
Visibility 8 miles    
Events Rain    
T = Trace of Precipitation, MM = Missing Value Source: NWS Daily Summary

Daily Weather History Graph

Daily Weather History Graph

Search for Another Location

Airport:

Trip Planner

Search our weather history database for the weather conditions in past years. The results will help you decide how hot, cold, wet, or windy it might be!

Date:

Astronomy

Nov. 06, 2013 Rise Set
Actual Time 6:23 AM CST 5:03 PM CST
Civil Twilight 5:57 AM CST 5:29 PM CST
Nautical Twilight 5:28 AM CST 5:59 PM CST
Astronomical Twilight 4:59 AM CST 6:28 PM CST
Moon 9:34 AM CST (11/6) 8:11 PM CST (11/6)
Length of Visible Light 11h 31m
Length of Day
10h 39m
Waxing Crescent, 14% of the Moon is Illuminated
Nov 6
Waxing Crescent
Nov 9
First Quarter
Nov 17
Full
Nov 25
Last Quarter
Dec 2
New

Hourly Weather History & Observations

Time (CST) Temp. Dew Point Humidity Pressure Visibility Wind Dir Wind Speed Gust Speed Precip Events Conditions
12:53 AM 60.1 °F 50.0 °F 69% 30.13 in 10.0 mi SE 13.8 mph 20.7 mph N/A   Scattered Clouds
1:53 AM 60.1 °F 48.9 °F 67% 30.11 in 10.0 mi SE 16.1 mph 24.2 mph N/A   Mostly Cloudy
2:53 AM 60.1 °F 48.0 °F 64% 30.10 in 10.0 mi SSE 13.8 mph 25.3 mph N/A   Clear
3:53 AM 57.9 °F 48.0 °F 70% 30.12 in 10.0 mi South 10.4 mph - N/A   Clear
4:53 AM 57.0 °F 48.0 °F 72% 30.13 in 10.0 mi South 10.4 mph - N/A   Clear
5:53 AM 57.0 °F 48.0 °F 72% 30.12 in 10.0 mi SSE 10.4 mph - N/A   Scattered Clouds
6:53 AM 57.0 °F 48.9 °F 74% 30.13 in 10.0 mi South 8.1 mph - N/A   Partly Cloudy
7:53 AM 61.0 °F 51.1 °F 70% 30.13 in 10.0 mi SSE 10.4 mph - N/A   Overcast
8:53 AM 64.0 °F 54.0 °F 70% 30.14 in 10.0 mi South 11.5 mph - N/A   Overcast
9:53 AM 66.9 °F 55.9 °F 68% 30.12 in 10.0 mi SSE 10.4 mph - N/A   Overcast
10:53 AM 71.1 °F 59.0 °F 66% 30.11 in 10.0 mi South 12.7 mph - N/A   Overcast
11:53 AM 71.1 °F 60.1 °F 68% 30.08 in 10.0 mi SSE 11.5 mph - N/A   Overcast
12:53 PM 71.1 °F 62.1 °F 73% 30.06 in 9.0 mi South 5.8 mph - 0.00 in Rain Light Rain
1:53 PM 72.0 °F 63.0 °F 73% 30.05 in 10.0 mi South 6.9 mph - 0.00 in   Overcast
2:53 PM 72.0 °F 64.0 °F 76% 30.05 in 10.0 mi South 8.1 mph - N/A   Overcast
3:53 PM 72.0 °F 64.9 °F 78% 30.04 in 10.0 mi South 8.1 mph - N/A   Mostly Cloudy
4:20 PM 71.1 °F 64.9 °F 81% 30.04 in 10.0 mi South 6.9 mph - 0.00 in Rain Light Rain
4:38 PM 70.0 °F 64.0 °F 81% 30.04 in 10.0 mi South 5.8 mph - 0.00 in   Overcast
4:53 PM 69.1 °F 64.9 °F 87% 30.04 in 7.0 mi SSW 4.6 mph - 0.00 in Rain Light Rain
5:28 PM 68.0 °F 64.9 °F 90% 30.06 in 1.8 mi WNW 5.8 mph - 0.09 in Rain Heavy Rain
5:39 PM 68.0 °F 66.0 °F 93% 30.06 in 3.0 mi NW 5.8 mph - 0.13 in Rain Rain
5:53 PM 66.9 °F 66.0 °F 97% 30.06 in 1.5 mi NW 4.6 mph - 0.24 in Rain Heavy Rain
6:25 PM 66.0 °F 64.9 °F 96% 30.08 in 2.0 mi Calm Calm - 0.28 in Rain Heavy Rain
6:37 PM 66.0 °F 64.9 °F 96% 30.08 in 6.0 mi NNE 3.5 mph - 0.28 in Rain Light Rain
6:53 PM 64.9 °F 64.0 °F 97% 30.08 in 7.0 mi NNE 5.8 mph - 0.29 in Rain Light Rain
7:46 PM 64.9 °F 64.0 °F 97% 30.09 in 5.0 mi SSW 4.6 mph - 0.03 in Rain Rain
7:53 PM 64.0 °F 63.0 °F 96% 30.09 in 5.0 mi WSW 3.5 mph - 0.04 in Rain Light Rain
8:06 PM 64.0 °F 64.0 °F 100% 30.09 in 2.5 mi Calm Calm - 0.05 in Rain Rain
8:15 PM 64.0 °F 63.0 °F 96% 30.10 in 5.0 mi Calm Calm - 0.06 in Rain Light Rain
8:34 PM 62.1 °F 61.0 °F 96% 30.12 in 5.0 mi NW 12.7 mph 20.7 mph 0.09 in Rain Rain
8:53 PM 57.0 °F 55.0 °F 93% 30.14 in 10.0 mi NNW 17.3 mph 24.2 mph 0.09 in Rain Light Rain
9:53 PM 54.0 °F 52.0 °F 93% 30.17 in 10.0 mi NNW 11.5 mph 21.9 mph 0.00 in   Overcast
10:53 PM 52.0 °F 50.0 °F 93% 30.20 in 10.0 mi North 11.5 mph 20.7 mph 0.00 in   Overcast
11:08 PM 52.0 °F 50.0 °F 93% 30.20 in 10.0 mi NNW 13.8 mph 19.6 mph N/A   Overcast
11:36 PM 52.0 °F 50.0 °F 93% 30.21 in 8.0 mi North 12.7 mph 18.4 mph N/A   Overcast
11:53 PM 51.1 °F 48.9 °F 92% 30.21 in 10.0 mi North 8.1 mph 18.4 mph N/A   Overcast
11:56 PM 51.1 °F 48.9 °F 92% 30.21 in 10.0 mi North 9.2 mph - N/A   Overcast